Temp_Advection
nan nan nan nan nan nan nan nan nan nan nan nan nan nan nan nan nan nan nan nan nan nan nan nan nan nan nan nan nan nan nan nan nan nan nan nan nan nan nan nan nan nan
nan 1 1 1 1 1 1 1 0 0 0 -0 -0 0 0 0 0 0 0 0 0 0 0 0 0 0 0 0 -0 -0 -0 -0 -0 -0 -0 -0 -0 -0 -0 -0 -0 nan
nan 1 1 1 1 1 1 0 0 0 -0 0 0 -0 -0 -0 0 0 0 0 0 0 0 0 0 0 0 0 0 -0 -0 -0 -0 -0 -0 -0 -0 -0 -0 -0 -0 nan
nan 1 1 1 1 1 1 0 0 0 0 0 -0 -0 0 0 0 0 0 0 0 0 0 0 0 0 0 0 0 0 -0 -0 -0 -0 -0 -0 -0 -0 -0 -0 0 nan
nan 1 1 1 1 1 0 0 0 0 0 -0 -0 0 0 0 0 0 0 0 0 0 0 0 0 0 -0 -0 -0 0 -0 -0 -0 -0 -0 -0 -0 -0 -0 -0 0 nan
nan 1 1 1 1 1 1 0 0 0 0 0 0 1 0 0 0 0 0 0 0 0 0 0 0 0 -0 -0 -0 -0 -0 -0 -0 -0 0 -0 -0 -0 -0 -0 -0 nan
nan 0 0 0 0 0 0 0 0 1 1 1 1 0 0 0 0 0 0 0 0 0 0 0 0 0 0 0 0 -0 -0 -0 -0 0 -0 -1 -1 -1 -1 -0 -0 nan
nan 0 -0 -0 0 0 0 1 1 1 1 0 0 -0 0 0 0 0 0 0 0 -0 -0 -0 -0 0 0 0 0 -0 -0 -0 -0 -0 -0 -1 -1 -1 -1 -0 0 nan
nan 0 0 0 1 1 1 1 1 1 0 0 -0 -0 0 0 0 0 0 -0 -0 -0 -0 -0 -0 -0 0 0 0 -0 -0 -0 -0 -0 -1 -1 -0 -1 -1 0 0 nan
nan 1 1 1 1 1 1 1 0 -0 0 0 -0 0 0 0 0 0 0 -0 -0 -0 -0 -0 -0 -0 0 0 0 -0 -0 -0 -0 -0 -1 -1 -0 -1 -0 0 -0 nan
nan 1 1 1 1 1 1 0 -0 -0 -0 0 0 0 0 -0 0 -0 0 0 0 -0 -0 -0 -0 -0 0 0 -0 -0 -0 -0 -0 -1 -1 -0 -0 -0 -0 -1 -1 nan
nan 1 1 0 0 0 0 0 -0 -0 -0 -0 0 0 0 0 0 -0 -0 0 0 0 0 -0 -0 -0 -0 0 -0 -0 -0 -0 -0 -1 -0 -0 -0 -1 -1 -1 -1 nan
nan 1 1 0 1 0 0 -0 -0 -0 -0 -0 0 0 0 0 0 0 0 0 0 0 0 -0 -0 -0 -0 -0 -0 -0 -0 -0 -0 -1 -0 -0 -1 -1 -1 -1 -0 nan
nan 1 1 1 1 0 0 -0 -0 -0 -0 0 0 0 0 0 0 0 0 0 0 0 0 -0 -0 -0 -0 -0 -0 -0 -0 -0 -0 -1 -1 -1 -1 -1 -1 -0 0 nan
nan 0 1 0 0 -0 -0 -0 -0 -0 0 0 0 0 0 0 0 0 0 0 0 0 0 -0 -0 -0 -0 -0 -0 -0 -0 -0 -0 -1 -0 -0 -0 -0 -0 0 -0 nan
nan 0 0 -0 -0 -0 -0 -0 -0 0 0 0 0 0 0 0 0 0 0 0 0 0 0 -0 -0 -0 -0 -0 -0 -0 -0 -1 -0 -0 -0 -0 -0 -0 -0 0 -0 nan
nan 0 -0 -0 -0 0 0 0 0 0 0 -0 -0 0 0 0 0 0 0 0 0 0 0 -0 -0 -0 -0 -0 -0 -0 -0 -1 -0 -0 0 0 -0 -0 0 -0 -0 nan
nan -0 -0 -0 0 0 1 1 1 0 0 0 0 0 0 0 0 0 -0 0 0 0 0 -0 -0 -0 -0 -0 -0 -0 -0 -0 -0 -0 0 -0 -0 -0 -0 -0 -0 nan
nan -0 -0 -0 0 0 1 1 1 0 0 0 0 0 0 -0 0 0 0 -0 0 0 0 -0 -0 -0 -0 -0 -0 -0 -0 -0 -0 -0 -0 -0 -0 -0 -0 -0 -0 nan
nan -0 -0 -0 -0 -0 0 0 0 0 0 0 0 0 0 -0 0 0 0 0 0 0 0 0 -0 -0 -0 -0 -0 -0 -0 -0 -0 -0 -0 -0 -0 -0 -0 -0 0 nan
nan -0 -0 -0 -0 -0 0 0 0 0 0 -0 -0 0 0 0 0 0 0 -0 0 0 0 0 -0 -0 -0 -0 -0 -0 -0 -0 0 0 0 0 0 0 0 0 0 nan
nan -0 -0 0 0 0 0 0 -0 0 -0 -0 -0 -0 0 0 0 0 0 0 -0 0 0 0 -0 -0 -0 -0 -0 -0 -0 -0 0 0 0 0 0 0 0 0 -0 nan
nan -0 -0 -0 -0 -0 -0 -0 -0 -0 -0 -0 -0 -0 0 0 0 0 0 0 0 0 0 0 -0 -0 -0 0 -0 -0 -0 -0 -0 -0 0 0 0 0 0 -0 -0 nan
nan -0 -0 -0 -0 -0 -0 -1 -1 -1 -0 0 0 -0 -0 0 0 0 0 0 0 0 0 0 -0 -0 -0 -0 -0 -0 -0 -0 -0 -0 0 0 -0 0 0 -0 -0 nan
nan -0 -0 -0 0 -0 -1 -1 -0 -0 0 0 0 0 0 0 0 0 -0 0 0 0 0 0 0 -0 -0 -0 -0 -0 -0 -0 -0 -0 -0 -0 -0 0 -0 -1 -0 nan
nan nan nan nan nan nan nan nan nan nan nan nan nan nan nan nan nan nan nan nan nan nan nan nan nan nan nan nan nan nan nan nan nan nan nan nan nan nan nan nan nan nan
Wind_Speed
21 20 18 17 16 15 15 14 12 12 11 11 9 8 8 8 7 6 6 6 6 4 3 3 3 2 1 1 2 2 2 2 3 3 4 4 5 5 6 7 9 11
21 19 18 17 17 16 15 13 12 13 12 11 9 8 9 8 7 7 7 6 5 4 3 3 2 1 1 1 1 1 1 2 2 3 4 5 5 5 6 8 11 12
20 19 18 17 17 16 15 14 14 14 13 11 9 9 10 10 8 8 7 6 5 4 3 2 2 2 1 1 1 1 1 2 2 4 5 5 5 5 7 10 12 12
20 19 18 18 17 16 15 15 15 15 14 11 11 12 11 10 9 7 6 5 4 3 3 2 2 2 3 3 3 2 2 2 3 4 5 5 5 6 9 11 11 12
20 20 19 18 18 17 17 17 16 15 12 13 14 12 11 10 8 7 6 4 3 3 3 3 3 3 4 4 4 3 2 3 3 4 5 5 6 8 10 11 11 11
21 21 20 19 19 19 19 18 15 14 14 15 13 12 11 10 8 7 6 4 4 3 3 3 3 3 4 4 3 3 3 3 4 4 5 6 9 11 12 11 11 11
21 21 20 20 20 19 18 16 15 16 16 14 13 12 11 9 7 6 6 5 4 4 4 4 3 3 3 3 2 3 4 4 5 5 6 9 11 13 13 12 12 12
18 17 17 17 18 18 17 18 18 17 16 14 14 13 10 8 6 6 6 6 5 5 4 4 3 3 3 2 2 3 4 5 5 5 8 11 13 13 14 13 13 14
16 16 17 18 19 19 19 18 18 17 16 15 13 11 9 7 6 6 6 6 6 5 5 4 4 3 3 2 2 2 4 5 5 6 9 12 12 13 14 13 13 16
18 18 18 18 18 18 18 18 18 17 16 14 12 10 8 7 7 7 6 6 6 6 5 5 5 4 3 2 2 2 4 5 5 7 10 12 13 14 15 15 17 20
18 18 18 18 18 17 18 19 18 17 15 13 11 9 8 8 8 7 7 6 6 6 6 6 6 5 4 3 3 3 4 5 6 9 11 12 13 16 16 18 21 24
18 18 17 18 18 19 19 19 18 16 15 12 9 8 8 8 8 8 8 7 6 7 7 6 6 6 5 4 3 4 4 5 7 11 12 12 13 16 18 21 23 24
18 18 18 19 20 20 20 19 17 15 14 12 9 8 9 9 8 8 8 8 7 8 7 7 7 7 5 4 4 4 5 6 9 12 13 13 15 17 20 22 23 22
19 18 20 21 21 20 19 18 17 15 13 11 10 9 10 10 9 9 9 9 9 8 8 8 7 6 6 5 4 5 6 7 10 12 12 13 15 17 19 21 22 21
21 21 22 22 21 20 19 18 17 15 13 11 10 11 12 11 11 10 10 9 9 9 9 8 7 7 6 5 4 5 7 8 9 10 10 11 13 14 16 19 21 21
23 23 23 23 21 20 19 18 17 16 14 12 13 13 12 12 12 11 11 10 10 9 9 9 8 7 6 6 6 6 7 9 9 8 7 8 11 12 13 16 19 21
25 25 24 23 21 20 19 18 17 16 15 15 16 15 14 13 12 12 12 11 10 10 9 9 9 8 7 6 6 7 7 9 9 6 5 6 8 10 12 15 18 20
26 25 24 23 22 20 20 19 17 16 14 15 16 16 15 14 13 13 13 12 11 10 9 10 9 9 8 7 7 7 7 7 7 6 5 6 7 8 10 14 16 18
27 26 25 24 22 21 21 20 18 16 14 14 16 16 15 14 14 13 13 12 11 10 9 10 9 9 8 7 6 6 5 5 4 4 4 5 4 5 8 12 14 17
27 26 25 24 22 22 22 21 19 17 15 14 15 16 15 14 14 13 13 12 11 10 9 9 9 9 8 6 5 4 4 3 2 1 2 2 2 2 5 10 14 16
27 25 24 23 22 22 22 22 20 18 16 15 15 16 15 14 14 13 12 12 11 10 9 9 10 9 8 6 5 3 3 2 2 2 1 1 1 1 4 10 14 15
27 25 24 22 21 21 22 22 22 19 17 15 16 16 15 14 13 12 12 11 11 10 8 8 10 10 8 6 5 3 3 3 4 3 2 2 2 3 7 11 13 14
26 24 23 22 22 22 22 22 22 20 18 16 16 16 15 14 14 13 12 11 11 10 9 9 10 10 8 7 5 4 3 4 5 4 2 2 4 6 9 11 13 14
23 22 22 22 23 24 24 23 22 20 19 17 15 16 17 16 14 14 13 12 11 11 10 9 9 10 9 7 6 5 3 3 4 4 2 2 4 6 8 11 14 15
22 21 22 23 25 25 24 23 22 21 19 18 17 18 18 17 15 15 14 13 12 11 11 10 9 10 9 8 7 6 5 4 4 3 2 1 2 5 9 12 14 14
22 22 24 25 26 25 24 22 22 21 20 20 19 19 18 17 16 15 15 14 13 11 10 9 9 9 9 8 8 7 6 5 5 4 4 4 4 6 9 12 13 14
Wind_Direction
201 205 210 215 220 226 231 233 238 243 247 251 258 259 239 219 211 208 208 206 209 214 222 235 245 261 281 292 303 320 339 350 14 23 8 3 8 6 359 356 355 356
204 207 211 215 218 222 223 226 234 241 249 257 260 244 220 208 205 202 200 201 205 208 211 222 229 240 262 285 314 344 23 30 39 25 6 7 6 358 359 1 1 3
204 206 208 212 216 219 220 222 230 240 252 258 242 218 210 209 204 195 194 196 197 199 200 209 219 219 210 163 119 87 80 56 43 23 9 12 11 7 10 9 9 15
201 203 207 213 216 221 224 224 232 244 250 236 211 202 205 206 197 186 186 187 188 195 199 204 208 187 155 136 127 115 92 59 43 23 12 20 25 22 23 20 21 28
204 206 210 215 217 220 224 228 238 241 225 203 194 194 197 196 187 177 176 177 182 197 200 193 183 160 144 135 128 112 82 62 51 28 17 30 33 34 38 35 33 35
210 211 213 215 217 221 227 231 230 212 192 186 187 188 189 189 183 173 170 171 173 183 185 176 162 142 133 131 128 113 87 71 58 39 31 43 47 51 53 45 37 36
212 214 216 218 219 220 220 212 196 182 178 181 184 185 187 184 178 170 165 163 162 166 168 163 149 123 111 112 120 109 95 80 63 48 46 54 57 59 57 49 42 39
208 205 203 200 197 192 187 179 174 174 178 182 185 187 184 177 172 167 160 157 156 157 155 147 134 115 106 116 124 111 100 88 70 55 56 58 58 58 55 49 43 40
189 181 174 170 169 167 166 167 170 175 180 184 187 184 174 167 165 160 153 149 148 148 146 141 134 126 124 136 144 127 103 88 69 58 62 60 56 55 52 44 39 39
174 169 166 164 161 160 162 165 171 176 181 186 186 178 167 163 158 151 145 140 138 139 142 146 145 142 142 147 147 125 100 86 67 63 69 66 56 51 46 39 37 37
170 167 166 165 164 164 165 168 173 177 181 185 185 177 168 163 155 146 138 134 134 136 142 151 151 147 146 143 129 102 89 81 69 70 75 71 58 48 42 39 36 33
169 168 169 170 171 168 168 171 176 178 179 180 180 177 168 159 152 144 137 136 139 139 144 150 148 143 139 130 109 87 78 73 75 79 78 71 57 45 39 37 33 29
173 172 171 170 169 166 166 171 176 179 181 175 166 164 161 154 150 146 142 143 145 144 146 146 143 139 132 122 105 90 81 80 87 88 78 64 52 42 36 33 28 26
179 178 174 171 168 166 167 171 176 182 184 175 160 157 158 153 150 149 147 148 147 145 144 141 137 132 125 116 106 98 88 84 91 88 73 56 45 38 33 28 21 21
184 182 178 175 173 172 172 176 183 188 189 177 163 162 159 153 152 152 151 149 146 144 141 136 131 129 126 121 115 108 92 83 86 82 67 50 39 34 28 21 14 16
184 181 179 178 177 176 177 181 187 190 187 174 165 164 160 155 155 154 151 149 145 142 138 135 132 130 129 128 125 116 97 86 83 78 65 48 36 29 20 13 10 12
182 180 179 180 180 179 180 184 186 186 180 169 165 164 160 157 157 154 151 148 143 140 138 135 133 128 126 129 130 125 108 96 91 82 67 53 38 26 14 9 9 12
182 182 181 181 182 183 184 185 185 184 178 168 165 165 160 157 158 154 151 146 142 143 141 135 128 123 123 128 132 132 123 109 102 89 69 56 39 20 10 6 8 14
186 185 184 184 185 185 187 187 186 186 182 170 165 164 160 157 158 155 149 144 140 139 136 129 121 118 119 122 126 129 125 117 113 93 69 66 54 18 2 359 7 16
190 190 188 188 188 188 189 190 189 189 185 174 167 166 162 159 158 154 147 140 136 133 130 124 118 113 113 115 119 124 122 126 140 126 79 73 69 20 346 353 7 17
193 192 190 188 187 186 187 190 192 192 187 177 169 166 164 161 156 151 144 137 132 130 129 126 117 108 105 106 111 121 137 166 208 214 222 349 28 17 348 359 11 20
194 192 191 189 187 186 186 189 191 190 186 178 169 166 166 162 152 145 140 135 132 131 132 128 117 107 102 99 98 113 150 192 219 234 264 312 357 4 2 11 22 29
194 193 191 189 189 188 187 186 185 184 183 178 168 163 161 157 149 142 137 134 134 133 132 127 116 106 99 91 86 92 130 184 208 226 262 322 354 0 10 29 41 39
194 194 193 189 187 185 182 181 179 179 178 173 165 160 158 156 151 144 138 137 137 134 128 121 111 103 94 85 78 77 94 155 190 208 242 322 356 15 38 53 52 42
194 195 194 188 183 181 180 178 175 172 171 167 161 160 158 155 151 146 142 140 136 129 122 116 107 101 95 86 77 73 81 106 131 151 163 54 44 60 63 60 52 42
197 195 191 185 181 180 179 176 172 168 166 163 160 159 157 152 148 147 144 137 128 120 115 110 104 100 94 86 79 74 77 88 99 106 107 99 90 77 63 57 52 43
Height
1540 1540 1540 1540 1540 1541 1542 1543 1545 1545 1545 1546 1546 1546 1547 1547 1548 1548 1548 1548 1548 1548 1548 1548 1548 1549 1549 1549 1549 1548 1548 1547 1547 1546 1545 1544 1544 1544 1543 1543 1542 1542
1539 1539 1539 1540 1540 1541 1542 1543 1545 1545 1545 1545 1546 1546 1546 1547 1548 1548 1549 1549 1549 1549 1549 1549 1549 1549 1549 1549 1549 1549 1548 1547 1546 1546 1545 1545 1544 1544 1544 1544 1543 1542
1539 1539 1539 1540 1540 1541 1542 1543 1544 1544 1545 1545 1546 1546 1547 1547 1548 1549 1549 1549 1550 1550 1549 1550 1550 1550 1550 1550 1549 1549 1548 1547 1547 1546 1546 1546 1545 1545 1545 1545 1544 1542
1538 1539 1539 1540 1541 1542 1542 1543 1543 1543 1544 1545 1546 1546 1547 1548 1549 1549 1550 1550 1550 1550 1550 1550 1550 1550 1550 1550 1549 1549 1548 1547 1547 1547 1547 1546 1546 1546 1546 1545 1544 1543
1538 1539 1539 1540 1540 1541 1541 1541 1542 1542 1543 1544 1545 1546 1547 1548 1549 1550 1550 1551 1551 1551 1550 1551 1551 1551 1550 1550 1549 1549 1548 1548 1548 1548 1547 1547 1547 1547 1547 1546 1545 1543
1537 1538 1539 1539 1540 1540 1540 1540 1541 1542 1543 1544 1545 1547 1548 1548 1550 1550 1551 1551 1551 1551 1551 1551 1551 1551 1550 1550 1549 1549 1549 1548 1548 1548 1548 1548 1548 1548 1548 1546 1545 1544
1536 1536 1537 1538 1538 1539 1539 1540 1541 1542 1543 1544 1545 1547 1548 1549 1550 1550 1551 1551 1551 1551 1551 1551 1551 1551 1550 1550 1549 1549 1549 1549 1549 1549 1549 1549 1549 1549 1548 1547 1546 1545
1534 1535 1536 1536 1537 1537 1539 1540 1541 1542 1543 1544 1545 1547 1548 1549 1550 1550 1550 1551 1551 1551 1551 1551 1551 1551 1550 1550 1550 1550 1550 1549 1549 1549 1549 1550 1549 1549 1548 1547 1547 1545
1534 1534 1535 1536 1537 1538 1539 1540 1541 1543 1544 1545 1546 1547 1548 1549 1549 1550 1550 1550 1551 1551 1551 1551 1551 1551 1551 1551 1550 1550 1550 1550 1550 1550 1550 1550 1549 1549 1549 1548 1547 1545
1533 1534 1535 1536 1537 1538 1539 1540 1541 1543 1544 1545 1546 1548 1548 1549 1549 1550 1550 1550 1550 1550 1550 1550 1551 1551 1551 1551 1551 1550 1550 1550 1550 1550 1550 1550 1550 1549 1549 1548 1546 1545
1533 1534 1535 1536 1537 1538 1540 1541 1542 1543 1544 1545 1546 1547 1548 1548 1549 1549 1549 1550 1550 1550 1550 1551 1551 1551 1551 1551 1551 1551 1550 1550 1550 1550 1550 1550 1550 1550 1549 1548 1546 1545
1532 1534 1535 1536 1537 1538 1540 1541 1542 1543 1544 1545 1547 1547 1548 1548 1548 1549 1549 1549 1550 1550 1551 1551 1551 1551 1551 1551 1551 1551 1551 1550 1550 1551 1551 1551 1550 1550 1549 1548 1547 1545
1533 1534 1535 1536 1537 1538 1540 1541 1542 1543 1544 1546 1547 1547 1547 1548 1548 1548 1549 1550 1550 1551 1551 1551 1551 1551 1551 1551 1551 1551 1551 1551 1551 1551 1551 1551 1551 1550 1549 1548 1547 1546
1533 1535 1536 1537 1538 1539 1540 1541 1542 1543 1544 1546 1547 1547 1547 1548 1548 1549 1549 1550 1551 1551 1551 1551 1551 1552 1552 1552 1552 1552 1552 1551 1551 1551 1551 1551 1551 1550 1550 1549 1548 1547
1534 1535 1537 1538 1538 1539 1540 1541 1542 1543 1544 1545 1546 1547 1547 1548 1548 1549 1549 1550 1551 1551 1551 1551 1552 1552 1552 1552 1552 1552 1552 1552 1551 1552 1552 1552 1552 1551 1550 1549 1548 1547
1535 1536 1537 1538 1539 1540 1540 1541 1542 1543 1544 1545 1546 1547 1547 1548 1549 1549 1550 1550 1551 1551 1552 1552 1552 1553 1553 1553 1553 1553 1553 1552 1552 1552 1552 1552 1552 1551 1551 1550 1548 1547
1535 1536 1537 1538 1539 1540 1540 1541 1542 1543 1544 1545 1546 1547 1547 1548 1549 1549 1550 1551 1551 1551 1552 1552 1553 1553 1553 1553 1553 1553 1553 1553 1552 1552 1552 1552 1552 1552 1551 1550 1549 1547
1535 1536 1537 1538 1539 1539 1540 1541 1542 1543 1544 1545 1546 1547 1547 1548 1549 1550 1550 1551 1552 1552 1553 1553 1553 1553 1553 1553 1554 1553 1553 1553 1552 1552 1552 1553 1553 1552 1551 1550 1549 1547
1535 1536 1537 1538 1539 1540 1540 1541 1543 1544 1544 1545 1546 1547 1548 1548 1549 1550 1551 1551 1552 1553 1553 1553 1554 1554 1554 1554 1554 1554 1553 1553 1552 1553 1553 1553 1553 1552 1551 1550 1549 1547
1534 1536 1537 1538 1539 1540 1541 1542 1543 1544 1544 1545 1546 1547 1548 1549 1549 1550 1551 1552 1552 1553 1554 1554 1554 1554 1554 1554 1554 1554 1553 1553 1553 1553 1553 1553 1552 1552 1551 1549 1548 1547
1533 1535 1537 1538 1539 1540 1541 1542 1543 1543 1544 1545 1547 1547 1548 1549 1550 1551 1551 1552 1553 1553 1554 1554 1554 1554 1554 1554 1554 1554 1553 1553 1553 1553 1553 1553 1552 1552 1550 1549 1548 1546
1533 1534 1536 1537 1538 1539 1541 1542 1542 1543 1544 1545 1547 1548 1548 1549 1550 1551 1552 1552 1553 1554 1555 1555 1554 1554 1554 1554 1554 1554 1554 1553 1553 1553 1553 1552 1552 1551 1550 1549 1547 1546
1532 1534 1535 1536 1538 1539 1540 1541 1542 1543 1544 1545 1546 1547 1548 1549 1550 1551 1552 1553 1554 1554 1555 1555 1554 1554 1554 1554 1554 1554 1554 1554 1553 1553 1552 1552 1552 1551 1550 1549 1547 1546
1532 1533 1534 1536 1537 1538 1540 1541 1542 1543 1544 1545 1547 1547 1548 1549 1550 1551 1552 1553 1554 1555 1555 1555 1555 1554 1554 1554 1554 1554 1554 1553 1553 1553 1552 1552 1551 1551 1550 1548 1547 1546
1531 1532 1534 1535 1537 1538 1539 1541 1542 1543 1544 1545 1547 1548 1548 1549 1551 1552 1553 1554 1555 1555 1555 1555 1555 1555 1555 1555 1554 1554 1554 1553 1553 1553 1552 1552 1551 1551 1549 1548 1547 1545
1531 1532 1534 1535 1536 1538 1540 1541 1542 1543 1544 1545 1546 1548 1549 1550 1551 1552 1553 1554 1554 1555 1555 1555 1555 1555 1555 1555 1554 1554 1554 1553 1553 1553 1552 1552 1551 1550 1549 1547 1546 1545